sat.trackr.live / text

‹ back to catalog

STARLINK-11165 [DTC]

NORAD 60063 · 2024-113E

PAYLOAD ACTIVE UNKNOWN

§ Identity

Operator
Country
US
Launch date
2024-06-19
Launch site
AFWTR
Launch vehicle
Mass (kg)
RCS (m²)

Purposes: comms

External: N2YO · Heavens-Above · Gunter

§ Orbital elements

Epoch: 2026-09-21T14:34:47.713152Z

Period
91.74 min
Inclination
53.1583°
Eccentricity
0.0001119
Mean motion
15.69707238 rev/d
Perigee alt
359.0 km
Apogee alt
360.5 km
Semi-major
6,737.9 km
B*
1.4952e-6
RAAN
305.3099°
Arg perigee
84.9582°
Mean anomaly
275.1564°
Rev number
13,033

§ Raw data

STARLINK-11165 [DTC]1 60063U 24113E   26264.60749668 -.00000407  00000+0  14952-5 0  99992 60063  53.1583 305.3099 0001119  84.9582 275.1564 15.69707238130337

JSON: /api/v1/satellites/60063 · /tle

For live sub-satellite position, see the globe view (requires WebGL).

§ Visibility from observer

Set your observer location to see the next 7 days of passes ≥ 10°. The values pass through the URL so the page stays shareable.

No JS? Fill the form by hand. The geolocation button needs JavaScript.